DW0687 Weather Reports


time (UTC)temp
F
wind
direction
speed
knots
gust
knots
rain 1hr
in
rain 24hr
in
rain mn
in
humidity
%
barometer
mb
20260504130508 55 68 0.9 3.5 0.00 0.00 0.00 65 1001.3
20260504110508 53 268 0.0 5.2 0.00 0.00 0.00 61 999.8
20260504100505 53 239 0.0 3.5 0.00 0.00 0.00 60 1000.3
20260504082004 54 234 1.7 7.0 0.00 0.00 0.00 53 1001.4
20260504081514 53 232 1.7 7.0 0.00 0.00 0.00 53 1001.4
20260504081007 53 229 2.6 6.1 0.00 0.00 0.00 53 1001.5
20260504080507 53 224 0.9 5.2 0.00 0.00 0.00 53 1001.5
20260504050508 56 252 0.0 0.9 0.00 0.00 0.00 48 1003.9
20260504045508 56 252 0.0 0.9 0.00 0.00 0.00 48 1004.2
20260504045007 56 252 0.0 0.9 0.00 0.00 0.00 47 1004.2
20260504044516 56 252 0.0 0.9 0.00 0.00 0.00 47 1004.2
20260504044004 56 252 0.0 0.9 0.00 0.00 0.00 47 1004.3
20260504043507 56 252 0.0 0.0 0.00 0.00 0.00 47 1004.4
20260504043022 57 252 0.0 0.9 0.00 0.00 0.00 47 1004.5
20260504042508 57 252 0.0 0.9 0.00 0.00 0.00 47 1004.7
20260504042008 57 252 0.0 0.9 0.00 0.00 0.00 46 1004.8
20260504041521 57 252 0.0 0.9 0.00 0.00 0.00 46 1004.9
20260504041008 58 252 0.0 0.9 0.00 0.00 0.00 46 1005.1
20260504040508 58 252 0.0 0.9 0.00 0.00 0.00 46 1005.1
20260504040029 58 252 0.0 0.0 0.00 0.00 0.00 45 1005.0
20260504035512 58 252 0.0 0.0 0.00 0.00 0.00 45 1005.0
20260504035011 58 252 0.0 0.0 0.00 0.00 0.00 45 1005.0
20260504034528 58 252 0.0 0.9 0.00 0.00 0.00 45 1005.0
20260504034007 58 252 0.0 0.9 0.00 0.00 0.00 45 1005.1
20260504033507 59 252 0.0 0.0 0.00 0.00 0.00 44 1005.1
20260504033016 59 252 0.0 0.0 0.00 0.00 0.00 44 1005.2
20260504032507 60 252 0.0 0.9 0.00 0.00 0.00 43 1005.3
20260504032010 60 252 0.0 2.6 0.00 0.00 0.00 42 1005.4
20260504031528 60 252 0.0 2.6 0.00 0.00 0.00 42 1005.5
20260504031007 61 269 0.0 2.6 0.00 0.00 0.00 41 1005.5
20260504030507 61 276 0.0 3.5 0.00 0.00 0.00 42 1005.6
20260504030025 61 269 0.0 3.5 0.00 0.00 0.00 42 1005.6
20260504025508 61 252 0.0 2.6 0.00 0.00 0.00 42 1005.8
20260504025008 61 265 0.0 1.7 0.00 0.00 0.00 42 1005.8
20260504024524 61 264 0.0 1.7 0.00 0.00 0.00 41 1005.8
20260504024009 62 264 0.0 1.7 0.00 0.00 0.00 41 1005.8
20260504023510 62 264 0.0 2.6 0.00 0.00 0.00 41 1005.8
20260504023030 62 264 0.0 2.6 0.00 0.00 0.00 40 1005.8
20260504022509 62 261 0.0 2.6 0.00 0.00 0.00 41 1005.8
20260504022010 62 288 0.0 2.6 0.00 0.00 0.00 40 1005.8
20260504021520 63 288 0.0 2.6 0.00 0.00 0.00 40 1005.8
20260504021006 63 288 0.0 1.7 0.00 0.00 0.00 40 1005.8
20260504020508 64 288 0.0 0.9 0.00 0.00 0.00 39 1005.8
20260504020021 64 288 0.0 1.7 0.00 0.00 0.00 38 1005.8
20260504015507 65 288 0.0 3.5 0.00 0.00 0.00 38 1005.9
20260504015010 65 288 0.0 3.5 0.00 0.00 0.00 38 1006.0
20260504014525 65 284 0.0 2.6 0.00 0.00 0.00 37 1006.1
20260504014009 65 284 0.0 2.6 0.00 0.00 0.00 37 1006.2
20260504013509 66 284 0.0 2.6 0.00 0.00 0.00 37 1006.2
20260504013036 66 284 0.0 3.5 0.00 0.00 0.00 37 1006.2
20260504012516 67 284 0.0 3.5 0.00 0.00 0.00 36 1006.4
20260504012011 67 273 0.0 4.3 0.00 0.00 0.00 36 1006.2
20260504011527 68 301 0.9 4.3 0.00 0.00 0.00 36 1006.4
20260504011011 68 263 0.0 3.5 0.00 0.00 0.00 36 1006.4
20260504010512 68 263 0.0 3.5 0.00 0.00 0.00 35 1006.4
20260504010018 69 263 0.9 4.3 0.00 0.00 0.00 34 1006.5
20260504005507 69 281 0.0 6.1 0.00 0.00 0.00 34 1006.5
20260504005008 69 260 0.9 6.1 0.00 0.00 0.00 34 1006.5
20260504004522 69 311 0.9 5.2 0.00 0.00 0.00 34 1006.5
20260504004009 70 326 1.7 5.2 0.00 0.00 0.00 34 1006.6
20260504003509 70 303 0.9 5.2 0.00 0.00 0.00 34 1006.6
20260504003026 70 322 0.9 5.2 0.00 0.00 0.00 34 1006.5
20260504002509 70 239 0.9 7.0 0.00 0.00 0.00 32 1006.6
20260504002003 71 236 0.9 7.0 0.00 0.00 0.00 32 1006.6
20260504001510 71 249 1.7 8.7 0.00 0.00 0.00 31 1006.7
20260504001010 72 340 1.7 8.7 0.00 0.00 0.00 30 1006.6
20260504000511 72 352 0.9 7.8 0.00 0.00 0.00 32 1006.7
20260504000016 72 335 2.6 8.7 0.00 0.00 0.00 31 1006.8
20260503235507 72 303 2.6 8.7 0.00 0.00 0.00 31 1006.9
20260503235007 73 238 1.7 7.0 0.00 0.00 0.00 31 1007.0
20260503234523 73 237 0.9 7.0 0.00 0.00 0.00 30 1006.9
20260503234008 73 292 2.6 7.0 0.00 0.00 0.00 29 1007.0
20260503233505 73 29 1.7 7.0 0.00 0.00 0.00 29 1007.1
20260503233006 73 265 0.9 8.7 0.00 0.00 0.00 30 1007.1
20260503232502 73 345 1.7 8.7 0.00 0.00 0.00 30 1007.2
20260503232002 73 316 2.6 8.7 0.00 0.00 0.00 31 1007.2
20260503231512 73 239 2.6 7.8 0.00 0.00 0.00 32 1007.3
20260503231006 73 257 0.9 8.7 0.00 0.00 0.00 31 1007.3
20260503230507 73 248 2.6 8.7 0.00 0.00 0.00 30 1007.5
20260503230013 73 18 1.7 8.7 0.00 0.00 0.00 30 1007.5
20260503225511 73 51 1.7 6.1 0.00 0.00 0.00 31 1007.4
20260503225006 73 54 0.0 8.7 0.00 0.00 0.00 32 1007.5
20260503224518 73 211 1.7 8.7 0.00 0.00 0.00 31 1007.5
20260503224011 73 275 1.7 7.8 0.00 0.00 0.00 30 1007.4
20260503223511 73 320 2.6 7.8 0.00 0.00 0.00 30 1007.5
20260503223024 73 268 1.7 7.0 0.00 0.00 0.00 30 1007.5
20260503222504 73 274 0.9 8.7 0.00 0.00 0.00 31 1007.5
20260503222004 73 280 4.3 8.7 0.00 0.00 0.00 30 1007.5
20260503221511 73 257 1.7 7.0 0.00 0.00 0.00 31 1007.5
20260503221006 73 251 0.9 7.0 0.00 0.00 0.00 32 1007.5
20260503220509 73 335 0.9 7.8 0.00 0.00 0.00 31 1007.6
20260503220010 73 2 1.7 7.8 0.00 0.00 0.00 32 1007.7
20260503215507 73 345 2.6 9.6 0.00 0.00 0.00 31 1007.7
20260503215011 73 289 2.6 9.6 0.00 0.00 0.00 32 1007.8
20260503214516 73 282 2.6 9.6 0.00 0.00 0.00 31 1007.9
20260503214008 73 116 0.9 8.7 0.00 0.00 0.00 34 1007.9
20260503213507 73 63 1.7 8.7 0.00 0.00 0.00 33 1008.0
20260503213022 73 301 0.9 10.4 0.00 0.00 0.00 31 1008.0
20260503212510 73 340 1.7 10.4 0.00 0.00 0.00 35 1008.2
20260503212009 73 246 0.9 7.0 0.00 0.00 0.00 35 1008.3
20260503211533 73 266 0.9 5.2 0.00 0.00 0.00 33 1008.4
20260503211004 72 323 0.9 5.2 0.00 0.00 0.00 35 1008.5
20260503210505 72 31 0.9 7.0 0.00 0.00 0.00 33 1008.5
20260503210010 72 6 2.6 7.0 0.00 0.00 0.00 33 1008.5
20260503205506 72 29 1.7 7.8 0.00 0.00 0.00 32 1008.7
20260503205010 72 67 1.7 7.8 0.00 0.00 0.00 34 1008.9
20260503204516 72 357 2.6 7.8 0.00 0.00 0.00 34 1009.0
20260503204008 72 57 0.9 13.0 0.00 0.00 0.00 36 1009.1
20260503203508 72 47 2.6 13.0 0.00 0.00 0.00 36 1009.1
20260503203018 72 8 4.3 13.0 0.00 0.00 0.00 35 1009.1
20260503202509 72 270 2.6 8.7 0.00 0.00 0.00 36 1009.2
20260503202010 71 50 2.6 8.7 0.00 0.00 0.00 37 1009.3
20260503201524 72 51 2.6 8.7 0.00 0.00 0.00 33 1009.3
20260503201008 72 40 2.6 7.0 0.00 0.00 0.00 35 1009.3
20260503200509 72 290 1.7 7.0 0.00 0.00 0.00 34 1009.4
20260503200008 71 340 1.7 7.0 0.00 0.00 0.00 39 1009.5
20260503195505 71 37 2.6 7.0 0.00 0.00 0.00 35 1009.7
20260503195005 71 37 1.7 7.8 0.00 0.00 0.00 37 1009.7
20260503194512 71 41 2.6 7.8 0.00 0.00 0.00 35 1009.6
20260503194008 71 249 0.9 7.0 0.00 0.00 0.00 36 1009.6
20260503193508 71 359 1.7 7.0 0.00 0.00 0.00 37 1009.7
20260503193015 71 68 0.9 7.8 0.00 0.00 0.00 37 1009.7
20260503192508 71 300 0.9 7.8 0.00 0.00 0.00 37 1009.8
20260503192007 71 45 1.7 7.0 0.00 0.00 0.00 38 1009.8
20260503191522 71 272 1.7 7.0 0.00 0.00 0.00 38 1010.0
20260503191008 71 328 2.6 7.0 0.00 0.00 0.00 39 1010.0
20260503190508 70 4 0.0 10.4 0.00 0.00 0.00 40 1010.0
20260503190041 70 76 1.7 10.4 0.00 0.00 0.00 40 1010.0
20260503185511 70 282 1.7 7.8 0.00 0.00 0.00 38 1010.0
20260503185010 70 87 1.7 10.4 0.00 0.00 0.00 39 1010.3
20260503184512 70 280 2.6 10.4 0.00 0.00 0.00 44 1010.2
20260503184006 70 47 5.2 10.4 0.00 0.00 0.00 39 1010.2
20260503183508 70 47 1.7 8.7 0.00 0.00 0.00 39 1010.3
20260503183017 70 6 1.7 8.7 0.00 0.00 0.00 35 1010.5
20260503182508 70 66 2.6 9.6 0.00 0.00 0.00 37 1010.6
20260503182006 70 83 1.7 9.6 0.00 0.00 0.00 34 1010.7
20260503181519 70 41 1.7 8.7 0.00 0.00 0.00 40 1010.7
20260503181008 70 31 2.6 9.6 0.00 0.00 0.00 38 1010.7
20260503180509 70 74 2.6 9.6 0.00 0.00 0.00 39 1010.7
20260503180036 70 64 1.7 7.8 0.00 0.00 0.00 38 1010.8
20260503175509 70 49 1.7 7.8 0.00 0.00 0.00 41 1010.9
20260503175010 69 40 1.7 9.6 0.00 0.00 0.00 41 1010.9
20260503174526 69 60 2.6 9.6 0.00 0.00 0.00 42 1010.9
20260503174010 69 74 1.7 9.6 0.00 0.00 0.00 39 1010.9
20260503173506 69 44 2.6 9.6 0.00 0.00 0.00 39 1011.0
20260503173015 68 352 1.7 7.8 0.00 0.00 0.00 42 1011.1
20260503172507 68 62 2.6 10.4 0.00 0.00 0.00 39 1011.2
20260503172008 68 47 4.3 10.4 0.00 0.00 0.00 40 1011.2
20260503171531 68 49 2.6 10.4 0.00 0.00 0.00 40 1011.1
20260503171008 68 28 4.3 10.4 0.00 0.00 0.00 40 1011.2
20260503170509 68 28 2.6 12.2 0.00 0.00 0.00 44 1011.1
20260503151010 64 70 2.6 8.7 0.00 0.00 0.00 46 1011.4
20260503150507 63 47 1.7 8.7 0.00 0.00 0.00 47 1011.5